| time (UTC) | temp F | wind direction | speed MPH | gust MPH | rain 1hr in | rain 24hr in | rain mn in | humidity % | barometer mb |
| 20260508121606 | 48 | 232 | 0.0 | 8.0 | 0.00 | 0.00 | 0.00 | 64 | 1013.0 |
| 20260508121106 | 48 | 235 | 5.0 | 10.0 | 0.00 | 0.00 | 0.00 | 65 | 1013.0 |
| 20260508120606 | 47 | 218 | 6.0 | 7.0 | 0.00 | 0.00 | 0.00 | 66 | 1013.0 |
| 20260508120106 | 47 | 234 | 1.0 | 9.0 | 0.00 | 0.00 | 0.00 | 67 | 1012.7 |
| 20260508115606 | 46 | 252 | 9.0 | 9.0 | 0.00 | 0.00 | 0.00 | 68 | 1012.7 |
| 20260508115106 | 46 | 194 | 5.0 | 11.0 | 0.00 | 0.00 | 0.00 | 69 | 1012.7 |
| 20260508114606 | 45 | 238 | 0.0 | 4.0 | 0.00 | 0.00 | 0.00 | 70 | 1012.6 |
| 20260508114106 | 45 | 253 | 0.0 | 3.0 | 0.00 | 0.00 | 0.00 | 72 | 1012.6 |
| 20260508113606 | 44 | 257 | 0.0 | 0.0 | 0.00 | 0.00 | 0.00 | 73 | 1012.7 |
| 20260508113106 | 44 | 257 | 0.0 | 0.0 | 0.00 | 0.00 | 0.00 | 74 | 1012.7 |
| 20260508112606 | 43 | 257 | 0.0 | 3.0 | 0.00 | 0.00 | 0.00 | 74 | 1012.6 |
| 20260508112106 | 43 | 257 | 0.0 | 0.0 | 0.00 | 0.00 | 0.00 | 74 | 1012.6 |
| 20260508111606 | 43 | 257 | 0.0 | 0.0 | 0.00 | 0.00 | 0.00 | 75 | 1012.6 |
| 20260508111109 | 43 | 257 | 0.0 | 0.0 | 0.00 | 0.00 | 0.00 | 75 | 1012.6 |
| 20260508110610 | 42 | 257 | 0.0 | 0.0 | 0.00 | 0.00 | 0.00 | 76 | 1012.6 |
| 20260508110107 | 42 | 257 | 0.0 | 0.0 | 0.00 | 0.00 | 0.00 | 76 | 1012.5 |
| 20260508105606 | 42 | 257 | 0.0 | 0.0 | 0.00 | 0.00 | 0.00 | 78 | 1012.4 |
| 20260508105106 | 41 | 257 | 0.0 | 0.0 | 0.00 | 0.00 | 0.00 | 78 | 1012.5 |
| 20260508104609 | 41 | 257 | 0.0 | 0.0 | 0.00 | 0.00 | 0.00 | 78 | 1012.4 |
| 20260508104106 | 41 | 257 | 0.0 | 0.0 | 0.00 | 0.00 | 0.00 | 78 | 1012.4 |
| 20260508103609 | 41 | 257 | 0.0 | 0.0 | 0.00 | 0.00 | 0.00 | 78 | 1012.3 |
| 20260508103106 | 41 | 257 | 0.0 | 0.0 | 0.00 | 0.00 | 0.00 | 77 | 1012.3 |
| 20260508102606 | 41 | 257 | 0.0 | 0.0 | 0.00 | 0.00 | 0.00 | 77 | 1012.3 |
| 20260508102106 | 41 | 257 | 0.0 | 1.0 | 0.00 | 0.00 | 0.00 | 77 | 1012.3 |
| 20260508101606 | 41 | 257 | 0.0 | 0.0 | 0.00 | 0.00 | 0.00 | 77 | 1012.3 |
| 20260508101109 | 41 | 257 | 0.0 | 0.0 | 0.00 | 0.00 | 0.00 | 77 | 1012.2 |
| 20260508100606 | 41 | 257 | 0.0 | 0.0 | 0.00 | 0.00 | 0.00 | 77 | 1012.2 |
| 20260508100106 | 41 | 257 | 0.0 | 0.0 | 0.00 | 0.00 | 0.00 | 77 | 1012.3 |
| 20260508095606 | 41 | 257 | 0.0 | 0.0 | 0.00 | 0.00 | 0.00 | 77 | 1012.3 |
| 20260508095106 | 41 | 257 | 0.0 | 0.0 | 0.00 | 0.00 | 0.00 | 77 | 1012.3 |
| 20260508094606 | 41 | 257 | 0.0 | 0.0 | 0.00 | 0.00 | 0.00 | 77 | 1012.4 |
| 20260508094106 | 41 | 257 | 0.0 | 0.0 | 0.00 | 0.00 | 0.00 | 77 | 1012.4 |
| 20260508093606 | 41 | 257 | 0.0 | 0.0 | 0.00 | 0.00 | 0.00 | 76 | 1012.4 |
| 20260508093106 | 41 | 257 | 0.0 | 0.0 | 0.00 | 0.00 | 0.00 | 76 | 1012.3 |
| 20260508092606 | 41 | 257 | 0.0 | 0.0 | 0.00 | 0.00 | 0.00 | 76 | 1012.4 |
| 20260508092106 | 42 | 257 | 0.0 | 0.0 | 0.00 | 0.00 | 0.00 | 75 | 1012.3 |
| 20260508091606 | 42 | 257 | 0.0 | 0.0 | 0.00 | 0.00 | 0.00 | 75 | 1012.4 |
| 20260508091106 | 42 | 257 | 0.0 | 0.0 | 0.00 | 0.00 | 0.00 | 75 | 1012.5 |
| 20260508090606 | 42 | 257 | 0.0 | 0.0 | 0.00 | 0.00 | 0.00 | 75 | 1012.5 |
| 20260508090109 | 42 | 257 | 0.0 | 0.0 | 0.00 | 0.00 | 0.00 | 75 | 1012.5 |
| 20260508085606 | 42 | 257 | 0.0 | 0.0 | 0.00 | 0.00 | 0.00 | 75 | 1012.5 |
| 20260508085106 | 42 | 257 | 0.0 | 0.0 | 0.00 | 0.00 | 0.00 | 75 | 1012.4 |
| 20260508084606 | 42 | 257 | 0.0 | 0.0 | 0.00 | 0.00 | 0.00 | 74 | 1012.4 |
| 20260508084106 | 42 | 257 | 0.0 | 0.0 | 0.00 | 0.00 | 0.00 | 74 | 1012.4 |
| 20260508083606 | 42 | 257 | 0.0 | 0.0 | 0.00 | 0.00 | 0.00 | 73 | 1012.4 |
| 20260508083111 | 43 | 257 | 0.0 | 0.0 | 0.00 | 0.00 | 0.00 | 72 | 1012.3 |
| 20260508082606 | 43 | 257 | 0.0 | 0.0 | 0.00 | 0.00 | 0.00 | 70 | 1012.3 |
| 20260508082106 | 43 | 257 | 0.0 | 0.0 | 0.00 | 0.00 | 0.00 | 69 | 1012.4 |
| 20260508081606 | 44 | 257 | 0.0 | 0.0 | 0.00 | 0.00 | 0.00 | 69 | 1012.4 |
| 20260508081106 | 44 | 257 | 0.0 | 0.0 | 0.00 | 0.00 | 0.00 | 68 | 1012.3 |
| 20260508080606 | 45 | 257 | 0.0 | 0.0 | 0.00 | 0.00 | 0.00 | 67 | 1012.4 |
| 20260508080106 | 45 | 257 | 0.0 | 0.0 | 0.00 | 0.00 | 0.00 | 66 | 1012.4 |
| 20260508075609 | 46 | 257 | 0.0 | 0.0 | 0.00 | 0.00 | 0.00 | 66 | 1012.5 |
| 20260508075109 | 46 | 257 | 0.0 | 0.0 | 0.00 | 0.00 | 0.00 | 65 | 1012.4 |
| 20260508074606 | 47 | 257 | 0.0 | 0.0 | 0.00 | 0.00 | 0.00 | 65 | 1012.4 |
| 20260508074106 | 47 | 257 | 0.0 | 0.0 | 0.00 | 0.00 | 0.00 | 64 | 1012.5 |
| 20260508073606 | 47 | 257 | 0.0 | 1.0 | 0.00 | 0.00 | 0.00 | 64 | 1012.5 |
| 20260508073109 | 47 | 257 | 0.0 | 0.0 | 0.00 | 0.00 | 0.00 | 63 | 1012.6 |
| 20260508072606 | 47 | 257 | 0.0 | 0.0 | 0.00 | 0.00 | 0.00 | 62 | 1012.7 |
| 20260508072106 | 47 | 257 | 0.0 | 0.0 | 0.00 | 0.00 | 0.00 | 62 | 1012.8 |
| 20260508071606 | 47 | 257 | 0.0 | 0.0 | 0.00 | 0.00 | 0.00 | 62 | 1012.9 |
| 20260508071106 | 48 | 257 | 0.0 | 1.0 | 0.00 | 0.00 | 0.00 | 61 | 1013.0 |
| 20260508070606 | 48 | 257 | 0.0 | 3.0 | 0.00 | 0.00 | 0.00 | 61 | 1013.0 |
| 20260508070106 | 47 | 257 | 0.0 | 3.0 | 0.00 | 0.00 | 0.00 | 61 | 1013.1 |
| 20260508065606 | 47 | 258 | 0.0 | 5.0 | 0.00 | 0.00 | 0.00 | 62 | 1013.1 |
| 20260508065106 | 47 | 263 | 1.0 | 2.0 | 0.00 | 0.00 | 0.00 | 62 | 1013.1 |
| 20260508064606 | 47 | 263 | 0.0 | 1.0 | 0.00 | 0.00 | 0.00 | 62 | 1013.2 |
| 20260508064106 | 47 | 263 | 0.0 | 2.0 | 0.00 | 0.00 | 0.00 | 61 | 1013.2 |
| 20260508063609 | 47 | 263 | 0.0 | 5.0 | 0.00 | 0.00 | 0.00 | 62 | 1013.2 |
| 20260508063106 | 47 | 265 | 2.0 | 5.0 | 0.00 | 0.00 | 0.00 | 63 | 1013.4 |
| 20260508062606 | 46 | 268 | 0.0 | 2.0 | 0.00 | 0.00 | 0.00 | 66 | 1013.2 |
| 20260508062106 | 46 | 268 | 0.0 | 0.0 | 0.00 | 0.00 | 0.00 | 66 | 1013.2 |
| 20260508061606 | 46 | 268 | 0.0 | 0.0 | 0.00 | 0.00 | 0.00 | 67 | 1013.2 |
| 20260508061109 | 46 | 268 | 0.0 | 0.0 | 0.00 | 0.00 | 0.00 | 67 | 1013.0 |
| 20260508060606 | 46 | 268 | 0.0 | 0.0 | 0.00 | 0.00 | 0.00 | 67 | 1012.9 |
| 20260508060106 | 45 | 268 | 0.0 | 0.0 | 0.00 | 0.00 | 0.00 | 67 | 1012.9 |
| 20260508055607 | 45 | 268 | 0.0 | 0.0 | 0.00 | 0.00 | 0.00 | 67 | 1012.8 |
| 20260508055107 | 45 | 268 | 0.0 | 0.0 | 0.00 | 0.00 | 0.00 | 67 | 1012.9 |
| 20260508054609 | 45 | 268 | 0.0 | 0.0 | 0.00 | 0.00 | 0.00 | 68 | 1013.1 |
| 20260508054105 | 45 | 268 | 0.0 | 0.0 | 0.00 | 0.00 | 0.00 | 69 | 1013.0 |
| 20260508053606 | 44 | 268 | 0.0 | 0.0 | 0.00 | 0.00 | 0.00 | 70 | 1013.2 |
| 20260508053106 | 44 | 268 | 0.0 | 0.0 | 0.00 | 0.00 | 0.00 | 70 | 1013.2 |
| 20260508052606 | 44 | 268 | 0.0 | 0.0 | 0.00 | 0.00 | 0.00 | 70 | 1013.1 |
| 20260508052106 | 44 | 268 | 0.0 | 0.0 | 0.00 | 0.00 | 0.00 | 71 | 1013.1 |
| 20260508051606 | 44 | 268 | 0.0 | 0.0 | 0.00 | 0.00 | 0.00 | 71 | 1013.2 |
| 20260508051107 | 44 | 268 | 0.0 | 0.0 | 0.00 | 0.00 | 0.00 | 72 | 1013.3 |
| 20260508050106 | 44 | 268 | 0.0 | 0.0 | 0.00 | 0.00 | 0.00 | 74 | 1013.3 |
| 20260508045606 | 44 | 268 | 0.0 | 0.0 | 0.00 | 0.00 | 0.00 | 76 | 1013.4 |
| 20260508045106 | 43 | 268 | 0.0 | 0.0 | 0.00 | 0.00 | 0.00 | 77 | 1013.6 |
| 20260508044606 | 43 | 268 | 0.0 | 0.0 | 0.00 | 0.00 | 0.00 | 78 | 1013.6 |
| 20260508044106 | 43 | 268 | 0.0 | 0.0 | 0.00 | 0.00 | 0.00 | 78 | 1013.5 |
| 20260508043605 | 43 | 268 | 0.0 | 0.0 | 0.00 | 0.00 | 0.00 | 78 | 1013.6 |
| 20260508043109 | 43 | 268 | 0.0 | 0.0 | 0.00 | 0.00 | 0.00 | 77 | 1013.6 |
| 20260508042606 | 43 | 268 | 0.0 | 0.0 | 0.00 | 0.00 | 0.00 | 77 | 1013.6 |
| 20260508042109 | 43 | 268 | 0.0 | 0.0 | 0.00 | 0.00 | 0.00 | 77 | 1013.5 |
| 20260508041606 | 43 | 268 | 0.0 | 0.0 | 0.00 | 0.00 | 0.00 | 77 | 1013.5 |
| 20260508041106 | 43 | 268 | 0.0 | 0.0 | 0.00 | 0.00 | 0.00 | 78 | 1013.5 |
| 20260508040609 | 43 | 268 | 0.0 | 0.0 | 0.00 | 0.00 | 0.00 | 79 | 1013.5 |
| 20260508040106 | 43 | 268 | 0.0 | 0.0 | 0.00 | 0.00 | 0.00 | 80 | 1013.4 |
| 20260508035605 | 43 | 268 | 0.0 | 0.0 | 0.00 | 0.00 | 0.00 | 80 | 1013.3 |
| 20260508035109 | 43 | 268 | 0.0 | 0.0 | 0.00 | 0.00 | 0.00 | 80 | 1013.4 |
| 20260508034609 | 42 | 268 | 0.0 | 0.0 | 0.00 | 0.00 | 0.00 | 80 | 1013.5 |
| 20260508034106 | 42 | 268 | 0.0 | 0.0 | 0.00 | 0.00 | 0.00 | 79 | 1013.5 |
| 20260508033609 | 42 | 268 | 0.0 | 0.0 | 0.00 | 0.00 | 0.00 | 79 | 1013.5 |
| 20260508033106 | 42 | 268 | 0.0 | 0.0 | 0.00 | 0.00 | 0.00 | 78 | 1013.5 |
| 20260508032606 | 42 | 268 | 0.0 | 0.0 | 0.00 | 0.00 | 0.00 | 78 | 1013.5 |
| 20260508032109 | 42 | 268 | 0.0 | 0.0 | 0.00 | 0.00 | 0.00 | 77 | 1013.6 |
| 20260508031609 | 42 | 268 | 0.0 | 0.0 | 0.00 | 0.00 | 0.00 | 76 | 1013.6 |
| 20260508031106 | 42 | 268 | 0.0 | 0.0 | 0.00 | 0.00 | 0.00 | 76 | 1013.4 |
| 20260508030609 | 42 | 268 | 0.0 | 0.0 | 0.00 | 0.00 | 0.00 | 75 | 1013.5 |
| 20260508030106 | 42 | 268 | 0.0 | 0.0 | 0.00 | 0.00 | 0.00 | 75 | 1013.7 |
| 20260508025606 | 42 | 268 | 0.0 | 0.0 | 0.00 | 0.00 | 0.00 | 75 | 1013.7 |
| 20260508025106 | 43 | 268 | 0.0 | 0.0 | 0.00 | 0.00 | 0.00 | 76 | 1013.6 |
| 20260508024609 | 43 | 268 | 0.0 | 0.0 | 0.00 | 0.00 | 0.00 | 76 | 1013.5 |
| 20260508024106 | 43 | 268 | 0.0 | 0.0 | 0.00 | 0.00 | 0.00 | 76 | 1013.6 |
| 20260508023606 | 43 | 268 | 0.0 | 0.0 | 0.00 | 0.00 | 0.00 | 76 | 1013.6 |
| 20260508023106 | 43 | 268 | 0.0 | 0.0 | 0.00 | 0.00 | 0.00 | 76 | 1013.6 |
| 20260508022606 | 43 | 268 | 0.0 | 0.0 | 0.00 | 0.00 | 0.00 | 75 | 1013.7 |
| 20260508022106 | 43 | 268 | 0.0 | 0.0 | 0.00 | 0.00 | 0.00 | 74 | 1013.6 |
| 20260508021606 | 43 | 268 | 0.0 | 0.0 | 0.00 | 0.00 | 0.00 | 73 | 1013.6 |
| 20260508021106 | 43 | 268 | 0.0 | 0.0 | 0.00 | 0.00 | 0.00 | 74 | 1013.6 |
| 20260508020609 | 44 | 268 | 0.0 | 0.0 | 0.00 | 0.00 | 0.00 | 73 | 1013.6 |
| 20260508020106 | 44 | 268 | 0.0 | 0.0 | 0.00 | 0.00 | 0.00 | 72 | 1013.7 |
| 20260508015611 | 44 | 268 | 0.0 | 0.0 | 0.00 | 0.00 | 0.00 | 70 | 1013.8 |
| 20260508015106 | 44 | 268 | 0.0 | 0.0 | 0.00 | 0.00 | 0.00 | 71 | 1013.8 |
| 20260508014606 | 44 | 268 | 0.0 | 0.0 | 0.00 | 0.00 | 0.00 | 70 | 1013.7 |
| 20260508014106 | 44 | 268 | 0.0 | 0.0 | 0.00 | 0.00 | 0.00 | 70 | 1013.7 |
| 20260508013606 | 45 | 268 | 0.0 | 0.0 | 0.00 | 0.00 | 0.00 | 69 | 1013.6 |
| 20260508013109 | 45 | 268 | 0.0 | 0.0 | 0.00 | 0.00 | 0.00 | 67 | 1013.6 |
| 20260508012609 | 45 | 268 | 0.0 | 0.0 | 0.00 | 0.00 | 0.00 | 66 | 1013.5 |
| 20260508012109 | 46 | 268 | 0.0 | 0.0 | 0.00 | 0.00 | 0.00 | 65 | 1013.4 |
| 20260508011609 | 46 | 268 | 0.0 | 0.0 | 0.00 | 0.00 | 0.00 | 63 | 1013.4 |
| 20260508011106 | 46 | 268 | 0.0 | 0.0 | 0.00 | 0.00 | 0.00 | 62 | 1013.4 |
| 20260508010605 | 47 | 268 | 0.0 | 0.0 | 0.00 | 0.00 | 0.00 | 61 | 1013.2 |
| 20260508010106 | 47 | 268 | 0.0 | 0.0 | 0.00 | 0.00 | 0.00 | 59 | 1013.4 |
| 20260508005606 | 48 | 268 | 0.0 | 0.0 | 0.00 | 0.00 | 0.00 | 57 | 1013.4 |
| 20260508005106 | 49 | 268 | 0.0 | 0.0 | 0.00 | 0.00 | 0.00 | 56 | 1013.2 |
| 20260508004606 | 49 | 268 | 0.0 | 0.0 | 0.00 | 0.00 | 0.00 | 55 | 1013.2 |
| 20260508004106 | 50 | 268 | 0.0 | 0.0 | 0.00 | 0.00 | 0.00 | 52 | 1013.1 |
| 20260508003606 | 51 | 268 | 0.0 | 0.0 | 0.00 | 0.00 | 0.00 | 50 | 1013.1 |
| 20260508003109 | 51 | 268 | 0.0 | 0.0 | 0.00 | 0.00 | 0.00 | 48 | 1012.9 |
| 20260508002606 | 52 | 268 | 0.0 | 0.0 | 0.00 | 0.00 | 0.00 | 46 | 1012.9 |
| 20260508002109 | 53 | 268 | 0.0 | 2.0 | 0.00 | 0.00 | 0.00 | 44 | 1012.8 |
| 20260508001609 | 53 | 268 | 0.0 | 0.0 | 0.00 | 0.00 | 0.00 | 42 | 1012.7 |
| 20260508001105 | 54 | 269 | 0.0 | 1.0 | 0.00 | 0.00 | 0.00 | 41 | 1012.7 |
| 20260508000606 | 54 | 268 | 0.0 | 0.0 | 0.00 | 0.00 | 0.00 | 40 | 1012.7 |
| 20260508000106 | 55 | 269 | 0.0 | 2.0 | 0.00 | 0.00 | 0.00 | 39 | 1012.8 |
| 20260507235606 | 55 | 269 | 2.0 | 5.0 | 0.00 | 0.00 | 0.00 | 38 | 1012.7 |
| 20260507235106 | 55 | 260 | 3.0 | 4.0 | 0.00 | 0.00 | 0.00 | 37 | 1012.7 |
| 20260507234606 | 55 | 265 | 0.0 | 4.0 | 0.00 | 0.00 | 0.00 | 38 | 1012.7 |
| 20260507234106 | 55 | 263 | 2.0 | 3.0 | 0.00 | 0.00 | 0.00 | 37 | 1012.7 |
| 20260507233610 | 55 | 263 | 0.0 | 4.0 | 0.00 | 0.00 | 0.00 | 38 | 1012.7 |
| 20260507233106 | 55 | 265 | 0.0 | 4.0 | 0.00 | 0.00 | 0.00 | 38 | 1012.6 |
| 20260507232606 | 55 | 264 | 3.0 | 6.0 | 0.00 | 0.00 | 0.00 | 37 | 1012.5 |
| 20260507232106 | 55 | 281 | 2.0 | 6.0 | 0.00 | 0.00 | 0.00 | 37 | 1012.6 |
| 20260507231606 | 55 | 309 | 4.0 | 10.0 | 0.00 | 0.00 | 0.00 | 35 | 1012.5 |
| 20260507231109 | 56 | 236 | 1.0 | 11.0 | 0.00 | 0.00 | 0.00 | 35 | 1012.5 |
| 20260507230606 | 56 | 297 | 6.0 | 12.0 | 0.00 | 0.00 | 0.00 | 35 | 1012.4 |
| 20260507230106 | 56 | 317 | 2.0 | 7.0 | 0.00 | 0.00 | 0.00 | 35 | 1012.8 |
| 20260507225609 | 56 | 312 | 2.0 | 10.0 | 0.00 | 0.00 | 0.00 | 35 | 1012.8 |
| 20260507225106 | 56 | 288 | 6.0 | 10.0 | 0.00 | 0.00 | 0.00 | 35 | 1012.8 |
| 20260507224606 | 56 | 263 | 4.0 | 13.0 | 0.00 | 0.00 | 0.00 | 36 | 1012.8 |
| 20260507224114 | 56 | 265 | 2.0 | 12.0 | 0.00 | 0.00 | 0.00 | 36 | 1012.8 |
| 20260507223606 | 56 | 282 | 3.0 | 10.0 | 0.00 | 0.00 | 0.00 | 36 | 1012.9 |
| 20260507223105 | 55 | 240 | 1.0 | 7.0 | 0.00 | 0.00 | 0.00 | 37 | 1013.0 |
| 20260507222606 | 55 | 254 | 2.0 | 9.0 | 0.00 | 0.00 | 0.00 | 39 | 1012.9 |
| 20260507222106 | 55 | 254 | 1.0 | 14.0 | 0.00 | 0.00 | 0.00 | 36 | 1013.0 |
| 20260507221606 | 56 | 333 | 6.0 | 11.0 | 0.00 | 0.00 | 0.00 | 35 | 1012.8 |
| 20260507221106 | 56 | 300 | 7.0 | 9.0 | 0.00 | 0.00 | 0.00 | 35 | 1012.8 |
| 20260507220609 | 56 | 252 | 1.0 | 7.0 | 0.00 | 0.00 | 0.00 | 37 | 1012.8 |
| 20260507220106 | 56 | 325 | 2.0 | 13.0 | 0.00 | 0.00 | 0.00 | 34 | 1012.8 |
| 20260507215609 | 57 | 281 | 3.0 | 13.0 | 0.00 | 0.00 | 0.00 | 35 | 1012.6 |
| 20260507215109 | 57 | 229 | 2.0 | 15.0 | 0.00 | 0.00 | 0.00 | 34 | 1012.5 |
| 20260507214606 | 57 | 288 | 0.0 | 16.0 | 0.00 | 0.00 | 0.00 | 36 | 1012.4 |
| 20260507214108 | 56 | 253 | 0.0 | 15.0 | 0.00 | 0.00 | 0.00 | 39 | 1012.5 |
| 20260507213606 | 56 | 240 | 4.0 | 15.0 | 0.00 | 0.00 | 0.00 | 38 | 1012.4 |
| 20260507213106 | 56 | 319 | 2.0 | 12.0 | 0.00 | 0.00 | 0.00 | 40 | 1012.3 |
| 20260507212609 | 56 | 260 | 2.0 | 11.0 | 0.00 | 0.00 | 0.00 | 38 | 1012.3 |
| 20260507212107 | 55 | 257 | 4.0 | 14.0 | 0.00 | 0.00 | 0.00 | 40 | 1012.3 |
| 20260507211606 | 56 | 294 | 3.0 | 11.0 | 0.00 | 0.00 | 0.00 | 38 | 1012.3 |
| 20260507211109 | 57 | 327 | 0.0 | 13.0 | 0.00 | 0.00 | 0.00 | 38 | 1012.2 |
| 20260507210605 | 57 | 206 | 3.0 | 13.0 | 0.00 | 0.00 | 0.00 | 38 | 1012.2 |
| 20260507210106 | 57 | 235 | 6.0 | 17.0 | 0.00 | 0.00 | 0.00 | 36 | 1012.1 |
| 20260507205609 | 57 | 269 | 12.0 | 21.0 | 0.00 | 0.00 | 0.00 | 37 | 1012.0 |
| 20260507205106 | 57 | 328 | 5.0 | 17.0 | 0.00 | 0.00 | 0.00 | 37 | 1011.9 |
| 20260507204606 | 57 | 253 | 6.0 | 15.0 | 0.00 | 0.00 | 0.00 | 36 | 1011.9 |
| 20260507204111 | 57 | 244 | 6.0 | 16.0 | 0.00 | 0.00 | 0.00 | 37 | 1011.9 |
| 20260507203606 | 57 | 315 | 6.0 | 13.0 | 0.00 | 0.00 | 0.00 | 37 | 1011.7 |
| 20260507203109 | 57 | 296 | 6.0 | 12.0 | 0.00 | 0.00 | 0.00 | 38 | 1011.7 |
| 20260507202606 | 57 | 313 | 6.0 | 14.0 | 0.00 | 0.00 | 0.00 | 39 | 1011.7 |
| 20260507202109 | 57 | 277 | 3.0 | 15.0 | 0.00 | 0.00 | 0.00 | 37 | 1011.9 |
| 20260507201606 | 57 | 278 | 4.0 | 17.0 | 0.00 | 0.00 | 0.00 | 39 | 1011.8 |
| 20260507201106 | 57 | 227 | 13.0 | 18.0 | 0.00 | 0.00 | 0.00 | 41 | 1011.8 |
| 20260507200609 | 57 | 338 | 6.0 | 17.0 | 0.00 | 0.00 | 0.00 | 41 | 1011.7 |
| 20260507200106 | 57 | 0 | 3.0 | 11.0 | 0.00 | 0.00 | 0.00 | 42 | 1011.6 |
| 20260507195608 | 57 | 297 | 1.0 | 11.0 | 0.00 | 0.00 | 0.00 | 41 | 1011.7 |
| 20260507195106 | 56 | 285 | 2.0 | 10.0 | 0.00 | 0.00 | 0.00 | 43 | 1011.8 |
| 20260507194607 | 56 | 255 | 4.0 | 13.0 | 0.00 | 0.00 | 0.00 | 41 | 1011.9 |
| 20260507194106 | 56 | 259 | 0.0 | 12.0 | 0.00 | 0.00 | 0.00 | 40 | 1012.0 |
| 20260507193606 | 57 | 267 | 3.0 | 19.0 | 0.00 | 0.00 | 0.00 | 44 | 1011.9 |
| 20260507193106 | 58 | 320 | 6.0 | 14.0 | 0.00 | 0.00 | 0.00 | 42 | 1011.8 |
| 20260507192606 | 57 | 320 | 3.0 | 15.0 | 0.00 | 0.00 | 0.00 | 44 | 1011.8 |
| 20260507192106 | 57 | 263 | 5.0 | 13.0 | 0.00 | 0.00 | 0.00 | 39 | 1011.8 |
| 20260507191606 | 57 | 227 | 1.0 | 9.0 | 0.00 | 0.00 | 0.00 | 45 | 1012.0 |
| 20260507191109 | 55 | 314 | 3.0 | 11.0 | 0.00 | 0.00 | 0.00 | 45 | 1012.0 |
| 20260507190606 | 56 | 311 | 1.0 | 14.0 | 0.00 | 0.00 | 0.00 | 44 | 1011.9 |
| 20260507190106 | 56 | 238 | 5.0 | 10.0 | 0.00 | 0.00 | 0.00 | 44 | 1012.0 |
| 20260507185606 | 56 | 264 | 0.0 | 6.0 | 0.00 | 0.00 | 0.00 | 40 | 1011.8 |
| 20260507185106 | 56 | 265 | 0.0 | 11.0 | 0.00 | 0.00 | 0.00 | 41 | 1012.0 |
| 20260507184606 | 56 | 282 | 0.0 | 13.0 | 0.00 | 0.00 | 0.00 | 40 | 1012.1 |
| 20260507184106 | 57 | 249 | 5.0 | 16.0 | 0.00 | 0.00 | 0.00 | 41 | 1011.9 |
| 20260507183606 | 57 | 345 | 2.0 | 10.0 | 0.00 | 0.00 | 0.00 | 40 | 1011.9 |
| 20260507183109 | 56 | 254 | 1.0 | 13.0 | 0.00 | 0.00 | 0.00 | 41 | 1011.9 |
| 20260507182606 | 57 | 250 | 6.0 | 12.0 | 0.00 | 0.00 | 0.00 | 45 | 1011.8 |
| 20260507182106 | 56 | 252 | 5.0 | 10.0 | 0.00 | 0.00 | 0.00 | 40 | 1011.8 |
| 20260507181606 | 56 | 275 | 3.0 | 13.0 | 0.00 | 0.00 | 0.00 | 40 | 1011.9 |
| 20260507181106 | 56 | 350 | 1.0 | 13.0 | 0.00 | 0.00 | 0.00 | 40 | 1011.8 |
| 20260507180606 | 56 | 242 | 13.0 | 13.0 | 0.00 | 0.00 | 0.00 | 42 | 1011.9 |
| 20260507180106 | 55 | 240 | 11.0 | 16.0 | 0.00 | 0.00 | 0.00 | 43 | 1012.0 |
| 20260507175609 | 55 | 213 | 6.0 | 15.0 | 0.00 | 0.00 | 0.00 | 43 | 1012.0 |
| 20260507175106 | 55 | 254 | 6.0 | 17.0 | 0.00 | 0.00 | 0.00 | 40 | 1012.0 |
| 20260507174606 | 55 | 278 | 5.0 | 14.0 | 0.00 | 0.00 | 0.00 | 41 | 1012.1 |
| 20260507174106 | 55 | 271 | 2.0 | 17.0 | 0.00 | 0.00 | 0.00 | 41 | 1012.3 |
| 20260507173606 | 55 | 242 | 16.0 | 20.0 | 0.00 | 0.00 | 0.00 | 37 | 1012.3 |
| 20260507173109 | 55 | 244 | 4.0 | 15.0 | 0.00 | 0.00 | 0.00 | 37 | 1012.3 |
| 20260507172606 | 55 | 288 | 14.0 | 17.0 | 0.00 | 0.00 | 0.00 | 40 | 1012.3 |
| 20260507172106 | 55 | 240 | 5.0 | 16.0 | 0.00 | 0.00 | 0.00 | 37 | 1012.4 |
| 20260507171608 | 55 | 248 | 12.0 | 15.0 | 0.00 | 0.00 | 0.00 | 37 | 1012.4 |
| 20260507171106 | 55 | 311 | 5.0 | 13.0 | 0.00 | 0.00 | 0.00 | 41 | 1012.3 |
| 20260507170606 | 55 | 309 | 9.0 | 20.0 | 0.00 | 0.00 | 0.00 | 41 | 1012.4 |
| 20260507170106 | 54 | 216 | 9.0 | 14.0 | 0.00 | 0.00 | 0.00 | 40 | 1012.4 |
| 20260507165606 | 54 | 256 | 4.0 | 13.0 | 0.00 | 0.00 | 0.00 | 40 | 1012.4 |
| 20260507165109 | 54 | 248 | 6.0 | 12.0 | 0.00 | 0.00 | 0.00 | 42 | 1012.5 |
| 20260507164606 | 54 | 248 | 4.0 | 14.0 | 0.00 | 0.00 | 0.00 | 41 | 1012.6 |
| 20260507164109 | 54 | 238 | 12.0 | 15.0 | 0.00 | 0.00 | 0.00 | 42 | 1012.6 |
| 20260507163605 | 54 | 222 | 7.0 | 14.0 | 0.00 | 0.00 | 0.00 | 41 | 1012.5 |
| 20260507163106 | 54 | 239 | 9.0 | 18.0 | 0.00 | 0.00 | 0.00 | 43 | 1012.4 |
| 20260507162606 | 54 | 252 | 5.0 | 14.0 | 0.00 | 0.00 | 0.00 | 41 | 1012.4 |
| 20260507162105 | 54 | 229 | 6.0 | 17.0 | 0.00 | 0.00 | 0.00 | 41 | 1012.4 |
| 20260507161606 | 55 | 246 | 10.0 | 15.0 | 0.00 | 0.00 | 0.00 | 42 | 1012.4 |
| 20260507161106 | 54 | 257 | 10.0 | 17.0 | 0.00 | 0.00 | 0.00 | 41 | 1012.5 |
| 20260507160606 | 54 | 261 | 5.0 | 14.0 | 0.00 | 0.00 | 0.00 | 44 | 1012.5 |
| 20260507160106 | 55 | 263 | 1.0 | 15.0 | 0.00 | 0.00 | 0.00 | 43 | 1012.3 |
| 20260507155609 | 54 | 153 | 4.0 | 12.0 | 0.00 | 0.00 | 0.00 | 42 | 1012.3 |
| 20260507155106 | 54 | 232 | 9.0 | 16.0 | 0.00 | 0.00 | 0.00 | 42 | 1012.2 |
| 20260507154606 | 54 | 250 | 4.0 | 9.0 | 0.00 | 0.00 | 0.00 | 42 | 1012.1 |
| 20260507154106 | 54 | 304 | 2.0 | 7.0 | 0.00 | 0.00 | 0.00 | 47 | 1012.1 |
| 20260507153606 | 53 | 281 | 1.0 | 11.0 | 0.00 | 0.00 | 0.00 | 45 | 1012.2 |
| 20260507153106 | 53 | 236 | 4.0 | 12.0 | 0.00 | 0.00 | 0.00 | 44 | 1012.2 |
| 20260507152609 | 53 | 246 | 4.0 | 15.0 | 0.00 | 0.00 | 0.00 | 43 | 1012.2 |
| 20260507152105 | 53 | 309 | 3.0 | 9.0 | 0.00 | 0.00 | 0.00 | 45 | 1012.2 |
| 20260507151606 | 53 | 272 | 6.0 | 12.0 | 0.00 | 0.00 | 0.00 | 46 | 1012.2 |
| 20260507151106 | 53 | 219 | 1.0 | 9.0 | 0.00 | 0.00 | 0.00 | 44 | 1012.2 |
| 20260507150606 | 53 | 246 | 5.0 | 13.0 | 0.00 | 0.00 | 0.00 | 44 | 1012.2 |
| 20260507150106 | 53 | 235 | 1.0 | 8.0 | 0.00 | 0.00 | 0.00 | 50 | 1012.1 |
| 20260507145606 | 52 | 221 | 1.0 | 15.0 | 0.00 | 0.00 | 0.00 | 47 | 1012.1 |
| 20260507145109 | 52 | 227 | 5.0 | 13.0 | 0.00 | 0.00 | 0.00 | 47 | 1012.2 |
| 20260507144605 | 52 | 249 | 9.0 | 12.0 | 0.00 | 0.00 | 0.00 | 49 | 1012.1 |
| 20260507144106 | 52 | 234 | 3.0 | 13.0 | 0.00 | 0.00 | 0.00 | 50 | 1012.2 |
| 20260507143606 | 51 | 263 | 1.0 | 12.0 | 0.00 | 0.00 | 0.00 | 49 | 1012.2 |
| 20260507143106 | 52 | 269 | 5.0 | 14.0 | 0.00 | 0.00 | 0.00 | 50 | 1012.2 |
| 20260507142606 | 52 | 238 | 4.0 | 10.0 | 0.00 | 0.01 | 0.00 | 52 | 1012.3 |
| 20260507142105 | 51 | 300 | 2.0 | 7.0 | 0.00 | 0.01 | 0.00 | 52 | 1012.3 |
| 20260507141606 | 51 | 247 | 1.0 | 10.0 | 0.00 | 0.01 | 0.00 | 54 | 1012.3 |
| 20260507141106 | 50 | 259 | 7.0 | 12.0 | 0.00 | 0.01 | 0.00 | 54 | 1012.4 |
| 20260507140606 | 50 | 241 | 6.0 | 12.0 | 0.00 | 0.01 | 0.00 | 53 | 1012.4 |
| 20260507140106 | 50 | 262 | 2.0 | 10.0 | 0.00 | 0.01 | 0.00 | 55 | 1012.3 |
| 20260507135606 | 50 | 249 | 5.0 | 10.0 | 0.00 | 0.01 | 0.00 | 57 | 1012.3 |
| 20260507135106 | 50 | 257 | 5.0 | 10.0 | 0.00 | 0.01 | 0.00 | 56 | 1012.3 |
| 20260507134609 | 50 | 268 | 5.0 | 6.0 | 0.00 | 0.01 | 0.00 | 57 | 1012.3 |
| 20260507134109 | 49 | 269 | 0.0 | 7.0 | 0.00 | 0.01 | 0.00 | 57 | 1012.5 |
| 20260507133606 | 49 | 267 | 5.0 | 10.0 | 0.00 | 0.01 | 0.00 | 56 | 1012.5 |
| 20260507133109 | 49 | 250 | 0.0 | 6.0 | 0.00 | 0.01 | 0.00 | 60 | 1012.6 |
| 20260507132606 | 48 | 249 | 2.0 | 9.0 | 0.00 | 0.01 | 0.00 | 59 | 1012.7 |
| 20260507132106 | 48 | 239 | 7.0 | 11.0 | 0.00 | 0.01 | 0.00 | 63 | 1012.7 |
| 20260507131606 | 48 | 248 | 2.0 | 10.0 | 0.00 | 0.01 | 0.00 | 63 | 1012.7 |
| 20260507131106 | 47 | 250 | 3.0 | 10.0 | 0.00 | 0.01 | 0.00 | 63 | 1012.8 |
| 20260507130609 | 47 | 250 | 5.0 | 9.0 | 0.00 | 0.01 | 0.00 | 64 | 1012.7 |
| 20260507130106 | 47 | 248 | 4.0 | 10.0 | 0.00 | 0.01 | 0.00 | 64 | 1012.8 |
| 20260507125609 | 47 | 259 | 5.0 | 10.0 | 0.00 | 0.01 | 0.00 | 66 | 1012.7 |
| 20260507125106 | 47 | 283 | 4.0 | 6.0 | 0.00 | 0.01 | 0.00 | 67 | 1012.8 |
| 20260507124606 | 47 | 292 | 0.0 | 4.0 | 0.00 | 0.01 | 0.00 | 68 | 1012.8 |
| 20260507124109 | 46 | 292 | 2.0 | 9.0 | 0.00 | 0.01 | 0.00 | 67 | 1012.7 |
| 20260507123610 | 46 | 259 | 3.0 | 7.0 | 0.00 | 0.01 | 0.00 | 69 | 1012.7 |
| 20260507123107 | 46 | 251 | 3.0 | 6.0 | 0.00 | 0.01 | 0.00 | 71 | 1012.7 |
| 20260507122609 | 46 | 252 | 0.0 | 5.0 | 0.00 | 0.01 | 0.00 | 71 | 1012.6 |
| 20260507122106 | 45 | 250 | 1.0 | 7.0 | 0.00 | 0.01 | 0.00 | 71 | 1012.7 |